This is the latest recevied weather packets stored in our database for station/object SQ5OUZ-1. If no packets are shown the sender has not sent any weather packets the latest 10 day(s).
| Time | Temp. | Humidity | Pressure | Rain* | Wind** | Luminosity | Snow |
|---|---|---|---|---|---|---|---|
| 1777916276 | 23.89° C | 25% | 1012.3 hPa | - | - | - | - |
| 1777915373 | 24.44° C | 23% | 1012.3 hPa | - | - | - | - |
| 1777914470 | 25° C | 22% | 1012.2 hPa | - | - | - | - |
| 1777912974 | 26.11° C | 21% | 1012.3 hPa | - | - | - | - |
| 1777912071 | 26.11° C | 21% | 1012.3 hPa | - | - | - | - |
| 1777911168 | 26.11° C | 21% | 1012.4 hPa | - | - | - | - |
| 1777910265 | 26.11° C | 20% | 1012.4 hPa | - | - | - | - |
| 1777909362 | 26.67° C | 20% | 1012.4 hPa | - | - | - | - |
| 1777908457 | 26.67° C | 19% | 1012.5 hPa | - | - | - | - |
| 1777907554 | 26.67° C | 19% | 1012.6 hPa | - | - | - | - |
| 1777906651 | 26.67° C | 18% | 1012.7 hPa | - | - | - | - |
| 1777905748 | 26.67° C | 19% | 1012.8 hPa | - | - | - | - |
| 1777904844 | 27.22° C | 18% | 1012.8 hPa | - | - | - | - |
| 1777903941 | 27.22° C | 18% | 1012.9 hPa | - | - | - | - |
| 1777903038 | 27.78° C | 18% | 1013 hPa | - | - | - | - |
| 1777902135 | 27.22° C | 18% | 1013.1 hPa | - | - | - | - |
| 1777901231 | 27.78° C | 17% | 1013.3 hPa | - | - | - | - |
| 1777900328 | 27.78° C | 17% | 1013.4 hPa | - | - | - | - |
| 1777899425 | 27.78° C | 17% | 1013.5 hPa | - | - | - | - |
| 1777898521 | 27.78° C | 18% | 1013.6 hPa | - | - | - | - |
| 1777897617 | 27.78° C | 18% | 1013.6 hPa | - | - | - | - |
| 1777896714 | 27.78° C | 18% | 1013.9 hPa | - | - | - | - |
| 1777895811 | 27.78° C | 19% | 1013.8 hPa | - | - | - | - |
| 1777894908 | 27.78° C | 19% | 1014 hPa | - | - | - | - |
| 1777894004 | 27.22° C | 20% | 1014.2 hPa | - | - | - | - |
* Rain since midnight (hover to see other rain measurements)
** Current wind speed in m/s (hover to see current wind gust speed)